Powrót do katalogu

FENGYUN 1C DEB

AktywnySSO
NORAD 30880·DEBRIS·🇨🇳 China

Wystrzelony May 10, 1999 z Taiyuan Satellite Launch Center

Loading…

Następne Przeloty (najbliższe 24 godziny)

TLE

ŚwieżeSource: Space-Track

Epoka: Sep 14, 2026, 03:32 UTC

1 30880U 99025AXS 26257.14780771  .00001662  00000-0  69944-3 0  9991
2 30880  98.7779 334.8478 0020745  29.2027 331.0309 14.27034103  6386

Śledź FENGYUN 1C DEB w czasie rzeczywistym z AllMySat

Download on the App Store